contact:dominique.lefevre@mio.osupytheas.fr, maurice.libes@osupytheas.fr, didier.mallarino@osupytheas.fr
Project:EMSO http://www.emso-fr.org/EMSO-France
Depth: 2436.0 m
Title:EMSO Ligure Ouest : Data MII capteur AQUADOPP
Date,Latitude,Longitude,X_East,Y_North,Z_Up,Amplitude_X,Amplitude_Y,Amplitude_Z,Batterie,SoundSpeed,Heading,Pitch,Roll,Pressure,TIS,Speed,Direction
, degrees North, degrees East, m.s-1, m.s-1,m.s-1, 1, 1, 1, Volt, m.s-1, degree, degree, degree, dbar, degree_C, m.s-1, degree
2020-06-11T00:01:03,42.805,6.029,-0.023,0.0,0.005,105.0,107.0,101.0,13.3,1505.3,328.0,-0.7,1.8,2470.539,13.33,0.023,270.0
2020-06-11T00:04:03,42.805,6.029,-0.013,-0.002,-0.027,105.0,107.0,102.0,13.4,1505.3,327.2,-0.7,1.8,2470.547,13.33,0.013,261.3
2020-06-11T00:10:03,42.805,6.029,-0.022,0.001,-0.02,104.0,106.0,102.0,13.3,1505.3,325.6,-0.7,1.8,2470.566,13.31,0.022,272.6
2020-06-11T00:13:03,42.805,6.029,-0.021,0.026,-0.014,104.0,107.0,102.0,13.4,1505.3,324.7,-0.7,1.8,2470.564,13.31,0.033,321.1
2020-06-11T00:16:03,42.805,6.029,-0.034,0.001,-0.035,104.0,106.0,102.0,13.4,1505.3,326.1,-0.7,1.9,2470.54,13.32,0.034,271.7
2020-06-11T00:19:03,42.805,6.029,-0.01,-0.015,-0.013,105.0,107.0,102.0,13.4,1505.3,327.0,-0.7,1.8,2470.521,13.32,0.018,213.7
2020-06-11T00:22:03,42.805,6.029,-0.017,0.009,-0.015,105.0,106.0,101.0,13.3,1505.3,323.8,-0.7,1.8,2470.52,13.32,0.019,297.9
2020-06-11T00:25:03,42.805,6.029,-0.023,0.022,0.017,104.0,106.0,101.0,13.4,1505.3,327.3,-0.7,1.8,2470.484,13.32,0.031,313.7
2020-06-11T00:28:03,42.805,6.029,-0.02,0.001,-0.025,105.0,105.0,102.0,13.4,1505.3,324.6,-0.7,1.8,2470.567,13.32,0.02,272.9
2020-06-11T00:31:03,42.805,6.029,-0.036,0.017,-0.014,105.0,107.0,102.0,13.4,1505.3,327.3,-0.7,1.8,2470.42,13.33,0.039,295.3
2020-06-11T00:34:03,42.805,6.029,-0.066,0.018,-0.048,106.0,107.0,101.0,13.4,1505.3,326.8,-0.7,1.8,2470.502,13.33,0.068,285.3
2020-06-11T00:37:03,42.805,6.029,-0.056,0.007,-0.025,104.0,106.0,101.0,13.3,1505.3,325.3,-0.7,1.8,2470.484,13.33,0.056,277.1
2020-06-11T00:40:03,42.805,6.029,-0.043,0.015,-0.039,105.0,107.0,101.0,13.4,1505.3,326.0,-0.7,1.8,2470.498,13.33,0.045,289.2
2020-06-11T00:43:03,42.805,6.029,-0.035,0.01,-0.04,105.0,105.0,102.0,13.4,1505.3,326.9,-0.7,1.8,2470.497,13.33,0.036,285.9
2020-06-11T00:46:03,42.805,6.029,-0.012,0.014,-0.029,105.0,105.0,102.0,13.4,1505.3,326.2,-0.7,1.8,2470.469,13.33,0.018,319.4
2020-06-11T00:49:03,42.805,6.029,-0.065,0.01,-0.01,104.0,107.0,101.0,13.4,1505.3,323.5,-0.7,1.8,2470.501,13.33,0.065,278.7
2020-06-11T00:52:03,42.805,6.029,-0.051,0.022,-0.029,105.0,107.0,103.0,13.4,1505.3,323.0,-0.6,1.8,2470.516,13.33,0.055,293.3
2020-06-11T00:55:03,42.805,6.029,-0.006,0.013,-0.009,105.0,106.0,101.0,13.4,1505.3,323.0,-0.7,1.8,2470.523,13.33,0.014,335.2
2020-06-11T00:58:03,42.805,6.029,-0.031,0.016,-0.022,104.0,106.0,102.0,13.4,1505.3,324.3,-0.7,1.9,2470.476,13.33,0.034,297.3
2020-06-11T01:04:03,42.805,6.029,-0.059,-0.015,-0.019,107.0,107.0,103.0,13.4,1505.3,324.1,-0.7,1.8,2470.535,13.31,0.06,255.7
2020-06-11T01:07:03,42.805,6.029,-0.025,0.0,-0.007,104.0,107.0,102.0,13.4,1505.3,326.6,-0.8,1.8,2470.511,13.31,0.025,270.0
2020-06-11T01:10:03,42.805,6.029,-0.03,0.0,-0.029,104.0,107.0,102.0,13.3,1505.3,323.6,-0.7,1.8,2470.487,13.32,0.03,270.0
2020-06-11T01:13:03,42.805,6.029,-0.02,0.003,-0.029,104.0,108.0,102.0,13.4,1505.3,327.9,-0.7,1.9,2470.476,13.32,0.02,278.5
2020-06-11T01:16:03,42.805,6.029,-0.014,0.0,-0.022,105.0,107.0,101.0,13.4,1505.3,325.6,-0.7,1.8,2470.499,13.32,0.014,270.0
2020-06-11T01:19:03,42.805,6.029,-0.034,0.004,-0.03,105.0,106.0,102.0,13.4,1505.3,326.9,-0.7,1.8,2470.499,13.32,0.034,276.7
2020-06-11T01:22:03,42.805,6.029,-0.031,0.002,-0.039,105.0,107.0,102.0,13.4,1505.3,325.6,-0.7,1.8,2470.479,13.32,0.031,273.7
2020-06-11T01:25:03,42.805,6.029,-0.017,-0.013,-0.005,105.0,108.0,101.0,13.4,1505.3,324.2,-0.7,1.9,2470.543,13.32,0.021,232.6
2020-06-11T01:28:03,42.805,6.029,-0.014,-0.004,-0.02,104.0,106.0,103.0,13.4,1505.3,323.4,-0.7,1.8,2470.498,13.32,0.014,254.1
2020-06-11T01:31:03,42.805,6.029,-0.025,-0.003,-0.027,105.0,106.0,102.0,13.4,1505.3,324.6,-0.7,1.8,2470.46,13.32,0.025,263.2
2020-06-11T01:34:03,42.805,6.029,-0.038,-0.006,-0.017,105.0,107.0,102.0,13.4,1505.3,324.8,-0.7,1.8,2470.464,13.32,0.038,261.0
2020-06-11T01:37:03,42.805,6.029,-0.018,0.016,-0.022,105.0,107.0,102.0,13.4,1505.3,328.2,-0.7,1.8,2470.49,13.32,0.024,311.6
2020-06-11T01:40:03,42.805,6.029,-0.027,0.011,-0.061,105.0,107.0,102.0,13.4,1505.3,328.2,-0.7,1.8,2470.445,13.33,0.029,292.2
2020-06-11T01:43:03,42.805,6.029,-0.045,-0.003,-0.035,106.0,107.0,102.0,13.4,1505.3,326.9,-0.7,1.9,2470.456,13.33,0.045,266.2
2020-06-11T01:46:03,42.805,6.029,-0.036,0.012,-0.039,104.0,107.0,101.0,13.4,1505.3,327.4,-0.7,1.9,2470.483,13.33,0.037,288.4
2020-06-11T01:49:03,42.805,6.029,-0.042,0.012,-0.022,104.0,107.0,103.0,13.3,1505.3,325.5,-0.7,1.8,2470.511,13.33,0.043,285.9
2020-06-11T01:52:03,42.805,6.029,-0.043,0.006,-0.041,105.0,107.0,102.0,13.4,1505.3,328.1,-0.7,1.9,2470.494,13.33,0.043,277.9
2020-06-11T01:55:03,42.805,6.029,-0.027,0.003,-0.024,105.0,106.0,102.0,13.3,1505.3,326.0,-0.7,1.8,2470.439,13.33,0.027,276.3
2020-06-11T01:58:03,42.805,6.029,-0.034,0.001,-0.048,106.0,107.0,103.0,13.4,1505.3,326.8,-0.7,1.8,2470.476,13.33,0.034,271.7
2020-06-11T02:04:03,42.805,6.029,-0.037,-0.003,-0.042,105.0,106.0,103.0,13.3,1505.3,325.3,-0.7,1.8,2470.503,13.31,0.037,265.4
2020-06-11T02:07:03,42.805,6.029,-0.035,-0.001,-0.022,105.0,106.0,102.0,13.4,1505.3,328.2,-0.7,1.8,2470.445,13.31,0.035,268.4
2020-06-11T02:10:03,42.805,6.029,-0.041,0.0,-0.037,105.0,106.0,102.0,13.3,1505.3,323.6,-0.7,1.8,2470.437,13.32,0.041,270.0
2020-06-11T02:13:03,42.805,6.029,-0.025,0.009,0.005,105.0,106.0,102.0,13.4,1505.3,327.2,-0.7,1.8,2470.501,13.32,0.026,289.8
2020-06-11T02:16:03,42.805,6.029,-0.029,0.011,0.002,104.0,106.0,103.0,13.3,1505.3,326.0,-0.7,1.9,2470.463,13.32,0.031,290.8
2020-06-11T02:19:03,42.805,6.029,-0.036,0.003,-0.032,104.0,107.0,102.0,13.3,1505.3,325.6,-0.7,1.8,2470.488,13.32,0.036,274.8
2020-06-11T02:22:03,42.805,6.029,-0.033,-0.016,-0.023,107.0,108.0,102.0,13.4,1505.3,326.0,-0.7,1.9,2470.473,13.32,0.036,244.1
2020-06-11T02:25:03,42.805,6.029,-0.021,0.004,-0.038,106.0,108.0,102.0,13.4,1505.3,324.0,-0.7,1.9,2470.476,13.33,0.021,280.8
2020-06-11T02:28:03,42.805,6.029,-0.027,0.002,-0.009,105.0,109.0,103.0,13.4,1505.3,328.0,-0.7,1.8,2470.478,13.32,0.027,274.2
2020-06-11T02:31:03,42.805,6.029,-0.029,0.006,-0.008,105.0,106.0,102.0,13.4,1505.3,324.8,-0.7,1.8,2470.454,13.32,0.029,281.7
2020-06-11T02:34:03,42.805,6.029,-0.037,-0.024,-0.082,105.0,107.0,102.0,13.4,1505.3,324.3,-0.7,1.8,2470.454,13.32,0.044,237.0
2020-06-11T02:37:03,42.805,6.029,-0.031,-0.001,-0.014,106.0,108.0,101.0,13.4,1505.3,326.8,-0.7,1.8,2470.424,13.33,0.031,268.2
2020-06-11T02:40:03,42.805,6.029,-0.022,0.033,0.013,104.0,107.0,102.0,13.4,1505.3,327.1,-0.7,1.8,2470.442,13.33,0.039,326.3
2020-06-11T02:43:03,42.805,6.029,-0.045,0.0,-0.002,105.0,105.0,102.0,13.3,1505.3,328.2,-0.7,1.8,2470.419,13.33,0.045,270.0
2020-06-11T02:46:03,42.805,6.029,-0.045,-0.009,-0.026,105.0,107.0,102.0,13.4,1505.3,325.8,-0.7,1.8,2470.445,13.32,0.045,258.7
2020-06-11T02:49:03,42.805,6.029,-0.036,0.006,-0.048,106.0,106.0,102.0,13.4,1505.3,327.7,-0.7,1.8,2470.46,13.33,0.036,279.5
2020-06-11T02:52:03,42.805,6.029,-0.033,-0.01,-0.039,105.0,107.0,101.0,13.4,1505.3,323.9,-0.7,1.8,2470.457,13.33,0.034,253.1
2020-06-11T02:55:03,42.805,6.029,-0.051,0.023,0.015,105.0,106.0,103.0,13.3,1505.3,325.0,-0.7,1.8,2470.421,13.32,0.055,294.3
2020-06-11T02:58:03,42.805,6.029,-0.036,0.007,0.001,105.0,106.0,103.0,13.4,1505.3,328.7,-0.7,1.8,2470.44,13.32,0.036,281.0
2020-06-11T03:04:03,42.805,6.029,-0.046,0.001,-0.037,105.0,108.0,102.0,13.3,1505.3,323.6,-0.7,1.8,2470.473,13.31,0.046,271.2
2020-06-11T03:07:03,42.805,6.029,-0.028,0.003,-0.042,106.0,107.0,102.0,13.4,1505.3,327.4,-0.7,1.8,2470.467,13.31,0.028,276.1
2020-06-11T03:10:03,42.805,6.029,-0.037,-0.014,-0.027,104.0,107.0,102.0,13.4,1505.3,325.0,-0.7,1.8,2470.435,13.32,0.039,249.3
2020-06-11T03:13:03,42.805,6.029,-0.031,0.021,-0.011,105.0,107.0,102.0,13.3,1505.3,324.2,-0.7,1.8,2470.44,13.32,0.037,304.1
2020-06-11T03:16:03,42.805,6.029,-0.021,0.0,-0.002,107.0,107.0,102.0,13.4,1505.3,323.9,-0.8,1.8,2470.464,13.32,0.021,270.0
2020-06-11T03:19:03,42.805,6.029,-0.016,0.028,0.021,105.0,108.0,102.0,13.4,1505.3,325.6,-0.7,1.8,2470.428,13.32,0.032,330.3
2020-06-11T03:22:03,42.805,6.029,-0.051,0.017,-0.054,105.0,107.0,102.0,13.4,1505.3,326.9,-0.7,1.9,2470.423,13.32,0.053,288.4
2020-06-11T03:25:03,42.805,6.029,-0.006,-0.002,-0.02,105.0,107.0,102.0,13.4,1505.3,322.9,-0.7,1.8,2470.464,13.33,0.006,251.6
2020-06-11T03:28:03,42.805,6.029,-0.044,0.017,-0.026,105.0,106.0,102.0,13.3,1505.3,325.5,-0.7,1.8,2470.415,13.33,0.047,291.1
2020-06-11T03:31:03,42.805,6.029,-0.028,0.022,-0.003,106.0,106.0,102.0,13.4,1505.3,327.7,-0.7,1.8,2470.392,13.32,0.035,308.2
2020-06-11T03:34:03,42.805,6.029,-0.021,0.001,0.003,105.0,106.0,103.0,13.4,1505.3,322.8,-0.7,1.8,2470.425,13.33,0.021,272.7
2020-06-11T03:37:03,42.805,6.029,-0.016,0.003,0.009,105.0,107.0,103.0,13.4,1505.3,326.0,-0.7,1.8,2470.412,13.32,0.016,280.6
2020-06-11T03:40:03,42.805,6.029,-0.023,0.008,-0.033,105.0,107.0,102.0,13.3,1505.3,324.7,-0.7,1.8,2470.415,13.33,0.024,289.2
2020-06-11T03:43:03,42.805,6.029,-0.033,0.017,-0.03,105.0,107.0,104.0,13.3,1505.3,327.1,-0.7,1.8,2470.383,13.33,0.037,297.3
2020-06-11T03:46:03,42.805,6.029,-0.011,-0.009,-0.026,105.0,107.0,102.0,13.3,1505.3,323.8,-0.7,1.8,2470.433,13.33,0.014,230.7
2020-06-11T03:49:03,42.805,6.029,-0.048,-0.006,-0.04,105.0,108.0,103.0,13.4,1505.3,327.3,-0.7,1.8,2470.427,13.33,0.048,262.9
2020-06-11T03:52:03,42.805,6.029,-0.055,0.013,-0.027,105.0,107.0,103.0,13.3,1505.3,328.1,-0.7,1.9,2470.443,13.33,0.056,283.3
2020-06-11T03:55:03,42.805,6.029,-0.031,0.008,-0.015,104.0,108.0,103.0,13.4,1505.3,326.4,-0.7,1.8,2470.439,13.33,0.032,284.5
2020-06-11T03:58:03,42.805,6.029,-0.051,0.011,-0.031,105.0,108.0,102.0,13.3,1505.3,326.5,-0.7,1.8,2470.401,13.33,0.052,282.2
2020-06-11T04:04:03,42.805,6.029,-0.033,0.02,-0.014,105.0,108.0,101.0,13.4,1505.3,326.7,-0.7,1.8,2470.421,13.31,0.038,301.2
2020-06-11T04:07:03,42.805,6.029,-0.045,0.012,-0.023,106.0,106.0,102.0,13.4,1505.3,323.8,-0.7,1.8,2470.426,13.31,0.046,284.9
2020-06-11T04:10:03,42.805,6.029,-0.036,-0.008,-0.023,106.0,109.0,102.0,13.4,1505.3,323.7,-0.7,1.8,2470.438,13.32,0.036,257.5
2020-06-11T04:13:03,42.805,6.029,-0.018,-0.011,0.018,107.0,109.0,102.0,13.4,1505.3,324.5,-0.7,1.8,2470.444,13.32,0.021,238.6
2020-06-11T04:16:03,42.805,6.029,-0.042,0.005,-0.017,107.0,108.0,102.0,13.4,1505.3,323.3,-0.7,1.8,2470.427,13.32,0.042,276.8
2020-06-11T04:19:03,42.805,6.029,-0.062,0.005,-0.034,106.0,108.0,104.0,13.3,1505.3,324.9,-0.7,1.9,2470.427,13.32,0.062,274.6
2020-06-11T04:22:03,42.805,6.029,-0.057,0.012,-0.034,107.0,108.0,103.0,13.3,1505.3,323.6,-0.7,1.8,2470.419,13.33,0.058,281.9
2020-06-11T04:25:03,42.805,6.029,-0.024,0.004,-0.016,106.0,108.0,103.0,13.4,1505.3,326.4,-0.7,1.8,2470.414,13.33,0.024,279.5
2020-06-11T04:28:03,42.805,6.029,-0.067,0.011,-0.04,105.0,108.0,103.0,13.3,1505.3,325.6,-0.7,1.8,2470.389,13.33,0.067,279.3
2020-06-11T04:31:03,42.805,6.029,-0.035,0.008,0.015,107.0,108.0,102.0,13.4,1505.3,324.7,-0.7,1.8,2470.378,13.33,0.035,282.9
2020-06-11T04:34:03,42.805,6.029,-0.037,0.0,-0.017,107.0,109.0,103.0,13.3,1505.3,325.2,-0.7,1.9,2470.418,13.33,0.037,270.0
2020-06-11T04:37:03,42.805,6.029,-0.036,0.008,0.007,106.0,107.0,103.0,13.4,1505.3,324.1,-0.7,1.8,2470.385,13.33,0.036,282.5
2020-06-11T04:40:03,42.805,6.029,-0.041,0.005,-0.029,105.0,108.0,104.0,13.3,1505.3,325.7,-0.7,1.8,2470.365,13.33,0.041,277.0
2020-06-11T04:43:03,42.805,6.029,-0.048,0.011,-0.04,107.0,108.0,103.0,13.4,1505.3,326.5,-0.7,1.8,2470.349,13.33,0.049,282.9
2020-06-11T04:46:03,42.805,6.029,-0.046,0.009,-0.017,106.0,107.0,103.0,13.3,1505.3,326.5,-0.7,1.8,2470.333,13.33,0.046,281.1
2020-06-11T04:49:03,42.805,6.029,-0.047,0.013,0.009,105.0,108.0,102.0,13.4,1505.3,327.3,-0.7,1.9,2470.38,13.33,0.048,285.5
2020-06-11T04:52:03,42.805,6.029,-0.059,0.007,-0.036,106.0,108.0,102.0,13.3,1505.3,323.2,-0.7,1.8,2470.371,13.33,0.059,276.8
2020-06-11T04:55:03,42.805,6.029,-0.052,0.01,-0.015,106.0,108.0,103.0,13.3,1505.3,324.8,-0.7,1.8,2470.367,13.33,0.052,280.9
2020-06-11T04:58:03,42.805,6.029,-0.04,0.001,-0.014,106.0,108.0,101.0,13.4,1505.3,326.9,-0.7,1.8,2470.387,13.33,0.04,271.4
2020-06-11T05:04:03,42.805,6.029,-0.044,0.006,-0.001,106.0,107.0,103.0,13.3,1505.3,327.3,-0.7,1.8,2470.401,13.31,0.044,277.8
2020-06-11T05:07:03,42.805,6.029,-0.059,0.006,-0.018,105.0,108.0,103.0,13.4,1505.3,323.6,-0.7,1.8,2470.42,13.31,0.059,275.8
2020-06-11T05:10:03,42.805,6.029,-0.036,0.01,-0.03,106.0,108.0,103.0,13.4,1505.3,327.6,-0.7,1.8,2470.388,13.32,0.037,285.5
2020-06-11T05:13:03,42.805,6.029,-0.007,0.019,-0.025,105.0,108.0,103.0,13.3,1505.3,324.7,-0.7,1.8,2470.4,13.32,0.02,339.8
2020-06-11T05:16:03,42.805,6.029,-0.036,-0.001,-0.024,106.0,108.0,104.0,13.4,1505.3,327.3,-0.7,1.8,2470.353,13.32,0.036,268.4
2020-06-11T05:19:03,42.805,6.029,-0.048,0.015,-0.006,105.0,108.0,104.0,13.4,1505.3,324.6,-0.7,1.8,2470.35,13.32,0.05,287.4
2020-06-11T05:22:03,42.805,6.029,-0.046,0.002,-0.014,107.0,108.0,101.0,13.4,1505.3,325.1,-0.7,1.8,2470.408,13.33,0.046,272.5
2020-06-11T05:25:03,42.805,6.029,-0.044,0.009,-0.012,106.0,108.0,104.0,13.4,1505.3,324.8,-0.7,1.8,2470.387,13.33,0.044,281.6
2020-06-11T05:28:03,42.805,6.029,-0.036,0.022,-0.026,106.0,109.0,103.0,13.4,1505.3,326.9,-0.7,1.8,2470.372,13.33,0.042,301.4
2020-06-11T05:31:03,42.805,6.029,-0.028,0.02,-0.012,106.0,108.0,103.0,13.3,1505.3,326.0,-0.7,1.8,2470.35,13.33,0.034,305.5
2020-06-11T05:34:03,42.805,6.029,-0.062,0.018,-0.038,106.0,108.0,103.0,13.4,1505.3,326.9,-0.7,1.8,2470.394,13.33,0.064,286.2
2020-06-11T05:37:03,42.805,6.029,-0.041,0.008,-0.017,106.0,109.0,102.0,13.4,1505.3,328.1,-0.7,1.8,2470.382,13.33,0.041,281.0
2020-06-11T05:40:03,42.805,6.029,-0.024,0.0,-0.005,106.0,107.0,102.0,13.3,1505.3,326.8,-0.7,1.8,2470.345,13.33,0.024,270.0
2020-06-11T05:43:03,42.805,6.029,-0.021,0.024,-0.035,107.0,108.0,103.0,13.4,1505.3,324.0,-0.7,1.8,2470.362,13.33,0.031,318.8
2020-06-11T05:46:03,42.805,6.029,-0.035,0.01,-0.008,106.0,107.0,103.0,13.4,1505.3,324.5,-0.7,1.8,2470.336,13.33,0.036,285.9
2020-06-11T05:49:03,42.805,6.029,-0.044,0.011,-0.05,107.0,109.0,104.0,13.4,1505.3,327.0,-0.7,1.8,2470.327,13.33,0.045,284.0
2020-06-11T05:52:03,42.805,6.029,-0.016,0.022,-0.003,107.0,109.0,103.0,13.4,1505.3,324.4,-0.7,1.8,2470.366,13.33,0.027,324.0
2020-06-11T05:55:03,42.805,6.029,-0.032,0.017,-0.016,106.0,108.0,102.0,13.4,1505.3,328.2,-0.7,1.8,2470.38,13.33,0.036,298.0
2020-06-11T05:58:03,42.805,6.029,-0.028,0.001,-0.004,106.0,106.0,103.0,13.4,1505.3,325.5,-0.7,1.9,2470.37,13.33,0.028,272.0
2020-06-11T06:04:03,42.805,6.029,-0.051,0.006,-0.033,107.0,108.0,103.0,13.4,1505.3,324.2,-0.7,1.8,2470.398,13.31,0.051,276.7
2020-06-11T06:07:03,42.805,6.029,-0.028,0.008,0.012,106.0,107.0,102.0,13.4,1505.3,327.3,-0.7,1.8,2470.414,13.31,0.029,285.9
2020-06-11T06:10:03,42.805,6.029,-0.02,0.007,-0.002,107.0,107.0,103.0,13.4,1505.3,324.9,-0.7,1.9,2470.365,13.32,0.021,289.3
2020-06-11T06:13:03,42.805,6.029,-0.035,0.005,-0.043,106.0,108.0,103.0,13.4,1505.3,327.2,-0.7,1.8,2470.353,13.32,0.035,278.1
2020-06-11T06:16:03,42.805,6.029,-0.04,0.005,-0.045,105.0,108.0,102.0,13.3,1505.3,325.5,-0.8,1.8,2470.38,13.32,0.04,277.1
2020-06-11T06:19:03,42.805,6.029,-0.03,0.018,-0.011,105.0,108.0,103.0,13.4,1505.3,326.6,-0.7,1.9,2470.344,13.32,0.034,301.0
2020-06-11T06:22:03,42.805,6.029,-0.063,0.001,-0.035,107.0,108.0,103.0,13.4,1505.3,326.9,-0.7,1.8,2470.35,13.33,0.063,270.9
2020-06-11T06:25:03,42.805,6.029,-0.036,0.0,-0.026,106.0,108.0,103.0,13.3,1505.3,327.6,-0.7,1.8,2470.355,13.33,0.036,270.0
2020-06-11T06:28:03,42.805,6.029,-0.036,0.012,-0.01,105.0,109.0,103.0,13.4,1505.3,325.2,-0.7,1.8,2470.336,13.33,0.037,288.4
2020-06-11T06:31:03,42.805,6.029,-0.026,-0.002,-0.018,107.0,108.0,101.0,13.4,1505.3,325.4,-0.7,1.8,2470.358,13.33,0.026,265.6
2020-06-11T06:34:03,42.805,6.029,-0.023,0.0,0.005,105.0,109.0,104.0,13.4,1505.3,325.7,-0.7,1.8,2470.339,13.33,0.023,270.0
2020-06-11T06:37:03,42.805,6.029,-0.071,0.003,-0.075,106.0,107.0,104.0,13.4,1505.3,324.4,-0.7,1.8,2470.345,13.33,0.071,272.4
2020-06-11T06:40:03,42.805,6.029,-0.051,-0.005,-0.028,106.0,107.0,104.0,13.4,1505.3,327.9,-0.7,1.8,2470.378,13.33,0.051,264.4
2020-06-11T06:43:03,42.805,6.029,-0.018,-0.002,-0.028,105.0,108.0,103.0,13.4,1505.3,325.2,-0.7,1.9,2470.375,13.33,0.018,263.7
2020-06-11T06:46:03,42.805,6.029,-0.024,-0.012,-0.031,106.0,108.0,102.0,13.4,1505.3,324.4,-0.7,1.8,2470.312,13.33,0.026,243.4
2020-06-11T06:49:03,42.805,6.029,-0.058,0.01,-0.048,106.0,107.0,102.0,13.3,1505.3,327.1,-0.7,1.8,2470.333,13.33,0.058,279.8
2020-06-11T06:52:03,42.805,6.029,-0.016,0.012,-0.025,105.0,108.0,102.0,13.4,1505.3,324.3,-0.7,1.8,2470.356,13.33,0.02,306.9
2020-06-11T06:55:03,42.805,6.029,-0.044,-0.005,-0.027,106.0,108.0,102.0,13.4,1505.3,323.2,-0.7,1.8,2470.341,13.33,0.044,263.5
2020-06-11T06:58:03,42.805,6.029,-0.048,0.019,-0.009,107.0,111.0,103.0,13.3,1505.3,327.2,-0.7,1.8,2470.325,13.33,0.051,291.6
2020-06-11T07:04:03,42.805,6.029,-0.042,0.003,-0.034,106.0,107.0,103.0,13.3,1505.3,327.7,-0.8,1.8,2470.392,13.31,0.042,274.1
2020-06-11T07:07:03,42.805,6.029,-0.029,0.011,0.004,105.0,107.0,102.0,13.3,1505.3,326.9,-0.7,1.8,2470.377,13.32,0.031,290.8
2020-06-11T07:10:03,42.805,6.029,-0.045,0.004,-0.018,105.0,108.0,103.0,13.4,1505.3,327.9,-0.7,1.8,2470.378,13.32,0.045,275.1
2020-06-11T07:13:03,42.805,6.029,-0.051,0.016,-0.028,105.0,106.0,102.0,13.4,1505.3,324.1,-0.7,1.8,2470.394,13.32,0.053,287.4
2020-06-11T07:16:03,42.805,6.029,-0.05,0.012,-0.035,105.0,106.0,101.0,13.3,1505.3,325.1,-0.7,1.8,2470.383,13.33,0.051,283.5
2020-06-11T07:19:03,42.805,6.029,-0.027,0.009,-0.033,105.0,107.0,102.0,13.3,1505.3,326.0,-0.7,1.8,2470.366,13.33,0.028,288.4
2020-06-11T07:22:03,42.805,6.029,-0.037,0.013,-0.015,105.0,108.0,104.0,13.4,1505.3,328.0,-0.7,1.9,2470.376,13.33,0.039,289.4
2020-06-11T07:25:03,42.805,6.029,-0.047,0.025,0.0,105.0,107.0,102.0,13.3,1505.3,324.8,-0.7,1.8,2470.363,13.33,0.053,298.0
2020-06-11T07:28:03,42.805,6.029,-0.033,0.021,0.0,105.0,107.0,103.0,13.3,1505.3,322.9,-0.7,1.8,2470.386,13.33,0.039,302.5
2020-06-11T07:31:03,42.805,6.029,-0.029,0.005,-0.028,106.0,107.0,103.0,13.4,1505.3,326.9,-0.7,1.8,2470.344,13.33,0.029,279.8
2020-06-11T07:34:03,42.805,6.029,-0.048,-0.004,-0.013,104.0,107.0,102.0,13.3,1505.3,325.8,-0.7,1.9,2470.395,13.33,0.048,265.2
2020-06-11T07:37:03,42.805,6.029,-0.031,-0.001,-0.007,104.0,106.0,103.0,13.3,1505.3,325.6,-0.7,1.8,2470.347,13.33,0.031,268.2
2020-06-11T07:40:03,42.805,6.029,-0.019,0.011,-0.02,104.0,108.0,101.0,13.3,1505.3,323.4,-0.7,1.8,2470.414,13.33,0.021,300.1
2020-06-11T07:43:03,42.805,6.029,-0.002,0.014,-0.012,105.0,106.0,101.0,13.3,1505.3,325.0,-0.7,1.9,2470.39,13.33,0.014,351.9
2020-06-11T07:46:03,42.805,6.029,-0.012,0.008,-0.012,105.0,106.0,102.0,13.3,1505.3,325.6,-0.7,1.8,2470.381,13.33,0.014,303.7
2020-06-11T07:49:03,42.805,6.029,-0.033,0.024,-0.032,103.0,106.0,102.0,13.4,1505.3,327.1,-0.7,1.8,2470.364,13.33,0.04,306.0
2020-06-11T07:52:03,42.805,6.029,-0.032,0.005,-0.031,105.0,106.0,101.0,13.3,1505.3,325.9,-0.7,1.9,2470.361,13.33,0.032,278.9
2020-06-11T07:55:03,42.805,6.029,-0.03,0.004,-0.014,105.0,105.0,103.0,13.3,1505.3,326.2,-0.7,1.8,2470.344,13.33,0.03,277.6
2020-06-11T07:58:03,42.805,6.029,-0.04,0.011,-0.026,106.0,106.0,101.0,13.4,1505.3,327.7,-0.7,1.8,2470.364,13.33,0.041,285.4
2020-06-11T08:04:03,42.805,6.029,-0.027,0.012,-0.016,104.0,107.0,103.0,13.3,1505.3,326.9,-0.8,1.8,2470.418,13.31,0.029,294.0
2020-06-11T08:07:03,42.805,6.029,-0.036,0.013,-0.009,105.0,107.0,102.0,13.4,1505.3,326.8,-0.7,1.9,2470.408,13.32,0.038,289.9
2020-06-11T08:10:03,42.805,6.029,-0.01,0.001,-0.019,105.0,106.0,103.0,13.4,1505.3,323.5,-0.7,1.9,2470.386,13.32,0.01,275.7
2020-06-11T08:13:03,42.805,6.029,-0.009,0.016,-0.026,104.0,107.0,102.0,13.4,1505.3,324.8,-0.7,1.8,2470.402,13.33,0.018,330.6
2020-06-11T08:16:03,42.805,6.029,-0.036,-0.007,-0.038,105.0,108.0,103.0,13.4,1505.3,322.9,-0.7,1.9,2470.362,13.33,0.036,259.0
2020-06-11T08:19:03,42.805,6.029,-0.041,-0.002,-0.012,105.0,108.0,104.0,13.4,1505.3,325.6,-0.7,1.8,2470.351,13.33,0.041,267.2
2020-06-11T08:22:03,42.805,6.029,-0.038,-0.012,-0.015,105.0,107.0,103.0,13.4,1505.3,324.8,-0.7,1.8,2470.387,13.33,0.039,252.5
2020-06-11T08:25:03,42.805,6.029,-0.036,-0.019,0.011,104.0,106.0,102.0,13.4,1505.3,326.0,-0.7,1.8,2470.376,13.33,0.04,242.2
2020-06-11T08:28:03,42.805,6.029,-0.03,0.014,-0.007,105.0,107.0,103.0,13.3,1505.3,323.8,-0.7,1.8,2470.412,13.33,0.033,295.0
2020-06-11T08:31:03,42.805,6.029,-0.057,0.011,-0.077,104.0,107.0,101.0,13.4,1505.3,327.2,-0.7,1.8,2470.36,13.33,0.058,280.9
2020-06-11T08:34:03,42.805,6.029,-0.04,0.014,-0.044,103.0,107.0,102.0,13.4,1505.3,326.6,-0.7,1.8,2470.397,13.33,0.042,289.3
2020-06-11T08:37:03,42.805,6.029,-0.049,0.013,-0.033,104.0,107.0,101.0,13.3,1505.3,327.8,-0.7,1.8,2470.419,13.33,0.05,284.9
2020-06-11T08:40:03,42.805,6.029,-0.052,0.012,-0.025,103.0,108.0,101.0,13.3,1505.3,326.3,-0.7,1.8,2470.411,13.33,0.053,283.0
2020-06-11T08:43:03,42.805,6.029,-0.053,0.035,-0.032,105.0,106.0,102.0,13.4,1505.3,328.2,-0.7,1.8,2470.37,13.33,0.063,303.4
2020-06-11T08:46:03,42.805,6.029,-0.062,0.015,-0.024,104.0,107.0,102.0,13.4,1505.3,326.4,-0.7,1.8,2470.398,13.33,0.063,283.6
2020-06-11T08:49:03,42.805,6.029,-0.027,-0.005,-0.02,105.0,107.0,101.0,13.3,1505.3,328.0,-0.7,1.8,2470.419,13.33,0.027,259.5
2020-06-11T08:52:03,42.805,6.029,-0.058,-0.002,-0.065,104.0,106.0,102.0,13.4,1505.3,326.5,-0.7,1.8,2470.426,13.33,0.058,268.0
2020-06-11T08:55:03,42.805,6.029,-0.025,0.0,-0.026,103.0,105.0,102.0,13.4,1505.3,326.3,-0.7,1.8,2470.361,13.33,0.025,270.0
2020-06-11T08:58:03,42.805,6.029,-0.022,0.001,-0.026,104.0,107.0,102.0,13.4,1505.3,324.6,-0.7,1.8,2470.385,13.33,0.022,272.6
2020-06-11T09:04:03,42.805,6.029,-0.046,0.019,-0.023,104.0,106.0,100.0,13.3,1505.3,326.7,-0.7,1.8,2470.438,13.31,0.049,292.4
2020-06-11T09:07:03,42.805,6.029,-0.048,0.015,-0.023,104.0,106.0,101.0,13.3,1505.3,325.2,-0.7,1.8,2470.411,13.32,0.05,287.4
2020-06-11T09:10:03,42.805,6.029,-0.019,0.02,-0.006,105.0,106.0,103.0,13.4,1505.3,322.9,-0.7,1.8,2470.424,13.32,0.027,316.5
2020-06-11T09:13:03,42.805,6.029,-0.045,0.0,-0.043,105.0,107.0,102.0,13.3,1505.3,325.6,-0.7,1.9,2470.414,13.33,0.045,270.0
2020-06-11T09:16:03,42.805,6.029,-0.04,0.004,-0.026,102.0,109.0,102.0,13.4,1505.3,328.4,-0.7,1.9,2470.442,13.33,0.04,275.7
2020-06-11T09:19:03,42.805,6.029,-0.056,0.021,-0.016,104.0,106.0,102.0,13.3,1505.3,324.1,-0.7,1.8,2470.434,13.33,0.059,290.6
2020-06-11T09:22:03,42.805,6.029,-0.028,0.009,-0.032,103.0,106.0,101.0,13.4,1505.3,323.8,-0.7,1.8,2470.428,13.33,0.029,287.8
2020-06-11T09:25:03,42.805,6.029,-0.022,0.021,-0.034,105.0,105.0,102.0,13.4,1505.3,324.4,-0.7,1.8,2470.369,13.33,0.03,313.7
2020-06-11T09:28:03,42.805,6.029,-0.025,-0.002,-0.036,104.0,105.0,103.0,13.3,1505.3,323.5,-0.7,1.8,2470.463,13.33,0.025,265.4
2020-06-11T09:31:03,42.805,6.029,-0.024,0.003,-0.004,104.0,107.0,101.0,13.4,1505.3,323.7,-0.7,1.8,2470.417,13.33,0.024,277.1
2020-06-11T09:34:03,42.805,6.029,-0.02,-0.009,-0.002,105.0,106.0,101.0,13.3,1505.3,325.9,-0.7,1.8,2470.39,13.33,0.021,245.8
2020-06-11T09:37:03,42.805,6.029,-0.057,0.015,-0.024,105.0,106.0,102.0,13.4,1505.3,325.7,-0.8,1.8,2470.384,13.33,0.058,284.7
2020-06-11T09:40:03,42.805,6.029,-0.069,-0.004,-0.037,105.0,106.0,102.0,13.4,1505.3,327.0,-0.7,1.8,2470.392,13.33,0.069,266.7
2020-06-11T09:43:03,42.805,6.029,-0.026,0.007,-0.034,103.0,106.0,102.0,13.4,1505.3,326.0,-0.7,1.8,2470.391,13.33,0.026,285.1
2020-06-11T09:46:03,42.805,6.029,-0.046,0.02,-0.005,106.0,106.0,101.0,13.4,1505.3,325.3,-0.7,1.8,2470.395,13.33,0.05,293.5
2020-06-11T09:49:03,42.805,6.029,-0.033,0.013,-0.013,104.0,106.0,101.0,13.4,1505.3,326.9,-0.7,1.8,2470.407,13.33,0.035,291.5
2020-06-11T09:52:03,42.805,6.029,-0.008,0.007,-0.017,105.0,106.0,101.0,13.3,1505.3,323.5,-0.7,1.9,2470.417,13.33,0.01,311.2